"Pseudo-MPEC" for P11BXOT

Created 2022 Nov 26 23:22:18 UT using Find_Orb

Click here for an explanation of pseudo-MPECs

 
 Astrometry: 
     P11BXOT* C2022 11 23.@\6A8=YLimixFgw/IXe'x?uH-.4,y8n?t*afAstrometryGtmjgF51
     P11BXOT  C2022 11 23\hgI@QLx-w5\EwkY)DKwcy\$f]RYNsoas\8E[.S2CiWtZkW$/Bk(F51
     P11BXOT  C2022 11 23N-;V0sg)/YODA\VeKh_`Y=u`kq;syHhV(redacted;y)J(8)17KmF51
     P11BXOT  C2022 11 23Gjs5)YnQDl5w-cQ/Q-7P6a3(ExspFA:?0CRYx)#$OlV\U-Ea:]k*F51
     P11BXOT  C2022 11 23x$fC#`mI'-Bk+NJ)1M-a@=wOJC6Z(X`clicki=OI@0Wb!jLES,cMF51
     P11BXOT |C2022 11 24J`Wt]Gm=Oovj^R-g!(Q2D-N53M7@ZTH*n%XRLKoVuEF3Q-U-5,sZ807
     P11BXOT |C2022 11 24mHIZO:!/nI9NLHTQr0L=0`I;Vhere-!OAIQj)'*^jR-^o50forqj807
     P11BXOT |C2022 11 24aiTexplanation4aeN0]ifDDofmG0w(;[rGCVXfhNW1PjNg3:1Wd807
     P11BXOT KC2022 11 25.38115205 50 01.930-07 36 32.70   ~BP9b 21.98GVNEOCPI52
     P11BXOT KC2022 11 26QK1b9#]1$ZBAm./I6@Z,_0v3wc(cAl:lWHJY_5^@WY3fB\VbqcG[H21
     P11BXOT KC2022 11 26953#qvDc6jtmlDLQYdq7C^Weu3(lP)MD`Gi6E,Mit5JFf^18u.v,H21

Station data:
(807) Cerro Tololo Observatory, La Serena  (S30.169133 W70.805900)  Chile.
   Observer R. Holmes. 0.61-m f/6.5 astrograph + CCD.
(F51) Pan-STARRS 1, Haleakala  (N20.707234 W156.255910)  US/Hawaii.
   Observers J. Bulger, T. Lowe, A. Schultz, M. Willman. Measurers K.
   Chambers, S. Chastel, T. de Boer, L. Denneau, J. Fairlamb, H. Flewelling,
   M. Huber, C.-C. Lin, E. Magnier, Y. Ramanjooloo, R. Wainscoat, R. Weryk.
   1.8-m Ritchey-Chrétien + CCD.
(H21) Astronomical Research Observatory, Westfield  (N39.483054 W87.968270)
   US/Illinois.  Observer R. Holmes. Measurers S. Foglia, L. Buzzi, T.
   Linder, R. Holmes. 0.76-m f/3.0 astrograph + CCD0.81-m f/4.0 astrograph +
   CCD0.61-m f/4.5 astrograph + CCD0.40-m f/5.32 astrograph + CCD.
(I52) Steward Observatory, Mt. Lemmon Station  (N32.442544 W110.788920)
   US/Arizona.  Observers T. A. Pruyne, B. M. Africano, E. J. Christensen, G.
   A. Farneth, D. C. Fuls, A. R. Gibbs, A. D. Grauer, H. Gröller, J. A.
   Johnson, R. A. Kowalski, S. M. Larson, G. J. Leonard, D. Rankin, R. L.
   Seaman, F. C. Shelly, K. W. Wierzchoś. 1.0-m reflector + CCD.

Orbital elements:  P11BXOT
   Perihelion 2022 Aug 15.37019 +/- 0.71 TT =  8:53:04 (JD 2459806.87019)
Epoch 2022 Nov 26.0 TT = JDT 2459909.5   Earth MOID: 0.1719   Ve: 0.0623
M  29.89043225 +/- 1.5              (J2000 ecliptic)          AutoNEOCP
n   0.29124511 +/- 0.0166           Peri.  221.30872 +/- 0.55
a   2.25405034 +/- 0.0842           Node    97.15493 +/- 0.9
e   0.6759323 +/- 0.0142            Incl.   28.85697 +/- 1.4
P   3.38                   H 20.6   G  0.15   U 10.0
q 0.73046488 +/- 0.00429    Q 3.77763581 +/- 0.173
From 11 observations 2022 Nov. 23-26; mean residual 0".17
Residuals in arcseconds: 
221123 F51  .04-  .09-    221123 F51  .21-  .09-    221125 I52  .24+  .29+    
221123 F51  .20+  .16-    221124 807  .05+  .09+    221126 H21  .39-  .24-    
221123 F51  .07-  .14-    221124 807  .04+  .12+    221126 H21  .17+  .06-    
221123 F51  .16-  .07+    221124 807  .03+  .05+    

Ephemerides (geocentric):
Date (UTC) HH   RA             Dec           delta  r     elong  mag " sig PA
---- --------  ------------   ------------  ------ ------ -----  --- --------
2022 11 26 23  05 45 38.174   -06 54 45.19  .71598 1.6192 143.4 21.9 .722 179
2022 11 27 00  05 45 31.222   -06 53 38.59  .71615 1.6196 143.5 21.9 .749 179
2022 11 27 01  05 45 24.270   -06 52 31.95  .71633 1.6200 143.6 21.9 .776 179
2022 11 27 02  05 45 17.320   -06 51 25.29  .71651 1.6204 143.6 21.9 .804 179
2022 11 27 03  05 45 10.371   -06 50 18.60  .71669 1.6208 143.7 21.9 .832 179
2022 11 27 04  05 45 03.422   -06 49 11.88  .71687 1.6212 143.7 21.9 .861 179
2022 11 27 05  05 44 56.475   -06 48 05.14  .71705 1.6216 143.8 21.9 .890 179
2022 11 27 06  05 44 49.529   -06 46 58.37  .71724 1.6220 143.8 21.9 .920 179
2022 11 27 07  05 44 42.584   -06 45 51.57  .71742 1.6225 143.9 21.9 .950 179
2022 11 27 08  05 44 35.641   -06 44 44.75  .71760 1.6229 143.9 21.9 .980 179
2022 11 27 09  05 44 28.698   -06 43 37.90  .71778 1.6233 144.0 21.9 1.01 179
2022 11 27 10  05 44 21.757   -06 42 31.03  .71797 1.6237 144.0 21.9 1.04 179
2022 11 27 11  05 44 14.817   -06 41 24.12  .71815 1.6241 144.1 21.9 1.07 179
2022 11 27 12  05 44 07.878   -06 40 17.20  .71834 1.6245 144.2 21.9 1.11 179
2022 11 27 13  05 44 00.940   -06 39 10.24  .71852 1.6249 144.2 21.9 1.14 179
2022 11 27 14  05 43 54.003   -06 38 03.26  .71871 1.6253 144.3 21.9 1.17 179
2022 11 27 15  05 43 47.068   -06 36 56.26  .71889 1.6257 144.3 21.9 1.21   0
2022 11 27 16  05 43 40.134   -06 35 49.23  .71908 1.6261 144.4 21.9 1.24   0
2022 11 27 17  05 43 33.202   -06 34 42.17  .71927 1.6265 144.4 21.9 1.28   0
2022 11 27 18  05 43 26.271   -06 33 35.09  .71945 1.6269 144.5 21.9 1.31   0
2022 11 27 19  05 43 19.341   -06 32 27.99  .71964 1.6273 144.5 21.9 1.35   0
2022 11 27 20  05 43 12.412   -06 31 20.86  .71983 1.6278 144.6 21.9 1.38   0
2022 11 27 21  05 43 05.485   -06 30 13.70  .72002 1.6282 144.6 21.9 1.42   0
2022 11 27 22  05 42 58.559   -06 29 06.52  .72021 1.6286 144.7 21.9 1.45   0
2022 11 27 23  05 42 51.635   -06 27 59.32  .72040 1.6290 144.7 21.9 1.49   0
2022 11 28 00  05 42 44.712   -06 26 52.09  .72059 1.6294 144.8 21.9 1.53   0
2022 11 28 01  05 42 37.790   -06 25 44.83  .72078 1.6298 144.9 21.9 1.57   0
2022 11 28 02  05 42 30.870   -06 24 37.56  .72097 1.6302 144.9 21.9 1.61   1
2022 11 28 03  05 42 23.952   -06 23 30.25  .72117 1.6306 145.0 21.9 1.65   1
2022 11 28 04  05 42 17.034   -06 22 22.93  .72136 1.6310 145.0 21.9 1.68   1
2022 11 28 05  05 42 10.119   -06 21 15.58  .72155 1.6314 145.1 21.9 1.72   1
2022 11 28 06  05 42 03.205   -06 20 08.21  .72175 1.6318 145.1 21.9 1.76   1
2022 11 28 07  05 41 56.292   -06 19 00.81  .72194 1.6322 145.2 21.9 1.81   1
2022 11 28 08  05 41 49.381   -06 17 53.39  .72213 1.6326 145.2 21.9 1.85   1
2022 11 28 09  05 41 42.472   -06 16 45.95  .72233 1.6330 145.3 21.9 1.89   1
2022 11 28 10  05 41 35.564   -06 15 38.48  .72253 1.6335 145.3 21.9 1.93   1
2022 11 28 11  05 41 28.657   -06 14 30.99  .72272 1.6339 145.4 21.9 1.97   1
2022 11 28 12  05 41 21.753   -06 13 23.48  .72292 1.6343 145.4 21.9 2.02   2
2022 11 28 13  05 41 14.850   -06 12 15.95  .72312 1.6347 145.5 21.9 2.06   2
2022 11 28 14  05 41 07.948   -06 11 08.39  .72331 1.6351 145.5 21.9 2.10   2
2022 11 28 15  05 41 01.049   -06 10 00.81  .72351 1.6355 145.6 21.9 2.15   2
2022 11 28 16  05 40 54.150   -06 08 53.21  .72371 1.6359 145.7 21.9 2.19   2
2022 11 28 17  05 40 47.254   -06 07 45.59  .72391 1.6363 145.7 21.9 2.24   2
2022 11 28 18  05 40 40.359   -06 06 37.94  .72411 1.6367 145.8 21.9 2.28   2
2022 11 28 19  05 40 33.466   -06 05 30.28  .72431 1.6371 145.8 21.9 2.33   2
2022 11 28 20  05 40 26.575   -06 04 22.59  .72451 1.6375 145.9 21.9 2.38   2
2022 11 28 21  05 40 19.686   -06 03 14.88  .72471 1.6379 145.9 21.9 2.42   3
2022 11 28 22  05 40 12.798   -06 02 07.14  .72491 1.6383 146.0 21.9 2.47   3